Вернуться в каталог

COSMOS 2251 DEB

АктивенVLEO
NORAD 37496·DEBRIS·🇷🇺 Russia

Запущен Jun 16, 1993 с Plesetsk Cosmodrome

Loading…

Ближайшие Пролёты (ближайшие 24 часа)

TLE

УстаревшееSource: Space-Track

Эпоха: Aug 30, 2026, 10:51 UTC

1 37496U 93036BLZ 26242.45245281  .00025138  00000-0  17016-2 0  9993
2 37496  73.9454 149.1158 0050312 102.8068 257.8750 15.05366138699262

Отслеживайте COSMOS 2251 DEB в реальном времени с AllMySat

Download on the App Store